Temp_Advection
nan nan nan nan nan nan nan nan nan nan nan nan nan nan nan nan nan nan nan nan nan nan nan nan nan nan nan nan nan nan nan nan nan nan nan nan nan nan nan nan nan nan nan nan nan
nan -0 -0 0 -0 -0 -0 -0 0 -0 0 0 -0 -0 0 0 0 -1 -2 -1 0 0 1 -0 -0 -0 -0 -0 0 0 0 0 -0 0 0 -0 -0 -1 -0 -1 -1 -0 1 1 nan
nan -0 -0 -0 -0 -0 -0 -0 -0 -0 0 -0 -0 -0 0 0 -0 -1 -1 0 0 0 0 0 0 -0 -0 -0 -0 0 0 -0 -1 0 1 -0 -0 0 1 -1 -0 0 1 1 nan
nan -0 -0 -0 -0 -0 -0 -0 -0 -0 -0 -0 -0 -0 0 -0 -0 -0 0 0 0 0 -0 0 0 -0 -0 -0 -0 -1 -1 -0 -0 0 1 -0 -1 -1 -1 -0 0 1 1 1 nan
nan -0 -0 -0 -0 -0 -0 -1 -0 -0 0 0 -0 0 0 -0 -1 -0 -0 0 0 1 0 -0 -0 -0 0 0 -0 -1 -1 -1 -0 -0 -0 -0 -1 -1 -1 -0 0 1 1 1 nan
nan -0 -0 -0 -0 -0 -1 -1 0 0 0 -0 -0 0 0 -0 -0 -0 -0 0 0 1 0 -0 -0 0 0 0 1 -1 -1 -1 -0 -0 -0 -1 -0 -0 -1 -0 0 0 1 1 nan
nan -0 -0 0 -0 -1 -0 -0 0 0 -0 -0 0 0 -0 -1 -0 -0 0 0 1 1 0 0 0 0 -0 -0 0 -0 -0 -1 -1 -1 0 -0 -0 -1 -0 -0 -0 0 0 1 nan
nan 0 0 0 0 -0 -0 0 0 0 -0 -0 -0 -0 -0 -0 -0 -0 0 1 1 0 -0 0 0 0 -0 -1 0 -0 -1 -1 -0 -0 -1 -0 -0 -0 -0 -0 -0 -0 0 0 nan
nan 1 0 0 0 0 0 0 -0 0 0 -0 0 -0 -0 -0 -0 0 0 -0 -0 0 0 -0 -0 -0 0 -1 -1 -0 -0 -0 -1 0 -0 0 -0 -0 0 -0 -0 -0 -0 0 nan
nan 1 0 -1 -0 -0 -0 0 0 0 -0 -0 -0 -0 -0 -0 0 0 0 0 -0 -0 -0 0 -0 -0 -1 -0 -1 -1 -0 0 -0 0 -0 -0 -1 -1 -0 0 -0 -0 -0 0 nan
nan 0 0 -1 0 -0 0 0 0 0 -0 -0 0 -0 0 0 0 0 0 -0 -0 -0 -0 0 0 -0 -1 -0 -0 0 0 0 -0 0 0 0 -1 -1 -0 -0 -0 -0 -0 -0 nan
nan 0 -0 -0 0 -0 0 0 -0 -0 -0 0 0 -0 -0 0 -0 -0 0 0 -0 -0 0 -0 -1 -0 0 1 0 1 0 -0 -1 0 0 0 -0 -0 -0 -0 0 0 -0 -0 nan
nan 0 0 0 0 -0 0 0 0 -0 -0 -0 -0 -0 -0 -0 -0 -0 -0 0 0 0 -0 -0 0 0 1 0 -0 0 0 -0 -0 -1 0 -0 -0 -0 -0 0 0 0 0 0 nan
nan 0 0 -0 -0 0 0 -0 0 -0 -0 -0 -0 -0 -0 -0 0 0 -0 0 0 0 -0 0 0 0 0 -0 -0 -0 1 -0 0 -1 -1 -0 -0 -1 -1 0 -0 -0 0 0 nan
nan -0 -0 -0 -0 -0 -0 -0 0 -0 -0 -0 -0 -0 -0 -0 -0 0 0 0 0 0 0 -0 0 -0 -0 -1 0 1 0 0 -1 -0 0 -1 -1 -1 -1 -1 -1 -0 0 0 nan
nan -0 -0 -0 0 -0 -0 -0 -0 -0 -0 0 -0 -0 -0 0 -0 -0 0 0 0 0 -0 0 0 -0 0 1 1 -0 -0 0 0 0 -0 -2 -0 1 -0 -1 -0 1 1 1 nan
nan -0 -0 -0 0 0 0 0 -0 -0 0 -0 0 -0 0 0 -0 -0 0 0 -0 0 -0 0 0 0 0 0 1 -0 -1 -0 -0 -0 -1 1 0 1 0 1 1 1 1 1 nan
nan -0 -0 -0 0 0 0 -0 -0 0 -0 -0 -0 0 0 0 0 0 0 0 -0 -0 -0 0 -0 -0 -0 0 -0 -0 0 -1 -1 -0 0 -0 -1 2 -1 0 0 2 1 0 nan
nan -0 -0 0 -0 0 -0 -0 -0 0 -0 -0 -0 0 0 -0 0 1 0 -0 -0 0 0 0 -0 0 0 0 -0 -0 -1 0 1 -0 -0 -0 1 0 0 -0 0 1 1 0 nan
nan 0 -0 -0 0 0 -0 -0 -0 0 -0 -0 -0 0 -0 0 1 0 -0 -0 -0 -0 1 0 -0 0 0 0 -0 -0 -0 1 0 -0 -1 -0 -1 2 0 -1 0 0 0 0 nan
nan -0 0 0 -0 0 -0 -0 0 0 -0 -0 0 0 0 0 -0 -0 -0 0 1 1 1 0 0 0 0 1 2 0 -0 -0 -0 -0 -0 -1 1 -1 0 -0 -0 0 0 0 nan
nan 0 -0 0 -0 -0 -0 0 0 0 -0 -0 0 0 0 0 -0 0 0 0 -1 -0 0 0 0 -0 1 -0 -0 -1 0 2 0 0 -0 0 4 -0 -0 1 -0 0 0 0 nan
nan 0 0 0 0 0 0 0 -0 -0 -0 -0 -0 0 0 0 0 0 0 0 0 -0 0 0 -0 0 -0 0 -0 -0 0 -0 -0 0 0 0 1 -1 0 1 1 0 0 0 nan
nan 0 -0 -0 0 -0 -0 -0 0 0 0 -0 -0 0 -0 0 0 0 0 0 0 0 1 -0 -0 -0 -0 0 -0 0 -0 0 1 0 -0 1 2 -1 0 0 1 1 1 1 nan
nan -0 -0 -0 -0 -0 -0 -0 -0 0 0 -0 0 0 0 0 -0 0 0 0 -0 -0 -0 -0 -0 -0 -0 -0 0 -0 1 0 0 -0 0 1 2 0 0 0 1 1 0 0 nan
nan -0 -0 -0 -0 -0 -0 0 -0 -0 -0 0 0 -0 -0 -0 0 -0 -0 0 0 -0 0 -0 0 0 0 0 -0 -0 -0 -0 -0 2 1 0 1 -0 0 -0 0 1 -0 -0 nan
nan nan nan nan nan nan nan nan nan nan nan nan nan nan nan nan nan nan nan nan nan nan nan nan nan nan nan nan nan nan nan nan nan nan nan nan nan nan nan nan nan nan nan nan nan
Wind_Speed
9 11 13 9 9 10 10 8 5 11 7 11 11 11 15 13 13 15 19 18 13 12 21 20 19 16 17 13 11 6 4 9 9 15 8 14 6 5 6 10 8 7 10 12 12
12 9 12 12 10 10 8 5 1 6 9 6 11 10 14 14 13 20 22 19 22 14 22 22 19 19 10 10 8 5 5 5 3 3 12 14 10 11 7 12 10 12 12 12 14
14 12 9 11 11 11 8 8 7 2 4 5 10 11 13 10 7 11 11 18 22 19 18 18 18 18 12 12 7 2 3 4 7 10 20 12 11 5 21 6 6 8 9 12 14
14 13 12 12 12 11 9 9 8 5 5 6 11 12 10 9 5 4 4 18 23 21 22 18 20 14 9 12 9 6 8 5 2 6 11 11 12 9 11 9 10 11 11 12 13
15 14 14 13 11 11 10 9 8 3 3 7 11 11 10 7 10 3 3 8 26 28 26 22 23 17 11 13 10 8 7 10 14 18 17 20 16 12 15 11 11 12 11 12 13
16 16 15 15 14 11 9 8 7 5 6 8 13 13 13 8 8 7 3 8 30 31 23 21 17 12 9 6 9 11 18 16 10 13 15 15 10 2 6 9 10 10 11 10 11
18 17 17 15 14 11 6 6 5 4 6 11 15 15 12 12 3 3 4 9 27 27 24 20 15 11 13 10 17 21 14 12 8 8 7 17 6 8 8 8 10 9 8 9 8
20 18 16 15 13 9 2 5 4 5 6 12 13 17 5 8 12 8 6 16 22 20 18 20 17 11 8 21 10 6 8 8 5 6 12 3 6 8 8 8 8 7 7 7 6
21 19 16 13 9 3 3 3 4 7 10 12 13 7 5 7 8 8 7 19 20 15 18 17 15 7 11 13 8 7 9 9 8 3 7 8 6 11 9 10 8 6 6 5 5
20 17 15 12 6 5 8 8 10 11 11 10 5 4 8 1 5 11 10 18 17 18 16 12 11 8 10 14 15 18 15 11 11 7 9 10 8 12 10 10 9 8 6 5 4
17 16 15 11 1 9 12 11 7 3 14 6 3 3 2 2 8 12 16 20 16 20 11 16 11 18 23 20 8 14 14 12 5 5 7 6 10 12 12 11 11 10 8 6 5
14 16 14 10 8 13 13 4 3 2 5 20 10 13 6 6 4 16 21 12 17 16 10 7 19 18 15 12 9 14 15 8 6 6 4 9 9 10 13 12 13 13 11 10 8
14 15 11 8 15 15 11 10 4 6 4 3 12 11 5 11 6 18 21 10 16 16 18 15 8 12 15 15 12 12 18 13 8 9 3 10 5 10 13 12 12 13 12 11 10
15 15 10 9 14 14 9 9 3 6 3 5 4 5 10 8 5 16 23 10 5 17 15 12 5 18 15 20 17 16 12 14 17 15 9 9 9 10 16 15 18 19 18 15 13
15 13 8 5 11 13 8 9 1 2 3 3 3 2 7 9 8 11 24 6 9 11 9 11 16 18 20 24 20 11 13 15 15 14 5 8 6 7 12 15 22 28 24 19 16
14 11 8 9 10 7 10 8 2 3 3 2 1 5 8 9 3 7 14 4 4 7 7 10 2 15 18 16 17 18 12 10 5 6 9 16 12 16 10 13 18 27 26 23 19
10 9 7 4 4 7 12 6 3 4 2 1 0 3 9 7 4 9 13 13 8 9 11 12 8 5 8 11 15 14 14 4 6 6 10 8 10 17 9 7 9 29 31 26 22
5 6 5 2 3 8 12 1 4 2 2 2 1 2 5 7 9 7 10 13 13 5 8 12 10 14 13 12 12 24 22 8 13 9 12 7 9 5 3 0 4 23 29 28 24
3 3 4 1 1 6 4 3 1 1 2 4 3 4 6 6 4 12 9 6 12 14 9 9 13 8 16 8 16 15 20 21 9 2 8 10 4 4 5 5 13 23 29 28 24
3 2 3 1 3 7 3 3 2 1 2 1 3 1 3 4 11 11 9 6 8 18 17 3 5 4 9 6 13 12 17 13 9 7 12 6 10 10 13 17 17 22 28 27 25
2 1 0 2 6 4 4 3 3 1 2 3 3 2 3 3 2 4 6 5 8 11 15 8 7 2 5 15 18 8 15 13 12 14 12 15 9 4 1 19 20 25 28 27 25
2 2 4 4 3 1 5 3 1 3 3 5 4 7 5 5 4 4 5 5 7 4 7 12 4 8 12 3 4 6 20 22 10 17 18 16 11 2 2 16 27 28 28 26 24
0 1 3 3 2 3 2 4 2 2 4 2 4 6 5 4 4 6 4 2 2 5 2 3 5 4 3 3 2 6 6 4 17 3 16 12 6 2 10 18 24 29 29 27 25
2 1 1 2 1 4 5 5 3 2 3 3 3 1 2 5 8 4 3 3 4 8 11 5 3 7 10 3 5 11 15 10 10 10 12 17 7 7 13 18 24 28 29 28 27
5 2 1 1 1 2 1 3 7 6 1 2 2 4 3 4 4 6 5 1 5 3 3 4 5 3 3 2 1 2 14 19 14 14 13 9 11 10 18 19 26 29 29 28 25
3 2 2 1 3 2 2 1 2 3 2 2 4 3 4 7 9 14 7 3 6 2 2 1 3 2 3 1 5 4 8 13 23 23 10 3 3 1 21 25 28 30 31 29 27
7 5 1 0 1 2 1 1 1 3 5 5 2 4 8 9 9 12 10 7 4 3 6 3 2 3 5 4 3 7 13 14 8 5 7 12 5 17 19 23 27 30 29 29 29
Wind_Direction
335 333 322 310 312 313 307 316 334 344 266 229 235 228 220 234 237 250 230 221 190 185 181 175 175 174 174 176 183 184 217 203 181 188 140 150 132 68 80 109 73 73 122 133 124
337 329 328 322 306 306 307 310 82 11 295 236 225 220 218 227 243 251 232 209 185 182 178 175 165 162 169 170 178 208 217 186 38 133 152 144 130 123 121 110 80 90 109 126 126
343 337 312 314 312 312 300 288 280 257 242 215 212 213 215 215 254 259 236 212 198 183 178 178 170 166 175 173 168 148 204 107 42 94 137 127 104 101 132 72 62 115 114 122 130
338 336 324 308 312 308 301 280 275 284 218 188 205 211 205 188 212 190 210 196 193 184 177 179 176 176 178 181 165 130 56 83 57 96 126 120 111 81 52 105 119 120 126 125 124
340 334 326 319 306 311 303 268 256 249 200 182 197 206 195 211 244 201 213 200 183 186 181 179 180 183 181 175 153 116 129 73 94 90 86 106 87 103 90 101 115 119 120 121 119
339 335 330 324 320 305 294 269 257 227 193 180 196 210 191 230 238 259 251 195 184 184 181 180 188 185 148 142 199 118 112 113 100 100 123 106 103 115 103 109 101 112 112 115 117
339 334 329 325 318 306 281 253 237 253 194 184 198 204 204 240 239 267 223 199 184 181 180 180 177 176 143 108 121 130 107 110 109 114 119 126 57 78 128 122 108 101 104 109 114
337 333 329 323 320 318 251 234 216 234 171 179 201 191 242 268 244 265 196 179 172 183 184 183 179 132 132 123 121 147 159 154 143 149 168 291 158 159 158 145 129 119 115 112 116
336 334 331 330 330 325 129 119 90 122 145 176 185 186 253 273 231 212 185 171 163 168 174 182 175 124 141 156 150 193 180 174 159 193 155 220 134 166 168 167 151 143 130 132 122
342 344 341 333 339 128 108 116 125 130 151 160 177 228 248 238 194 184 166 173 158 160 163 172 179 165 176 188 196 188 189 185 170 162 195 171 132 155 172 175 170 163 152 150 153
347 353 346 341 127 134 138 133 113 138 184 197 228 238 85 140 151 176 162 154 152 169 178 186 186 200 196 202 249 204 194 167 140 148 159 199 162 179 178 181 182 180 173 163 176
0 358 354 333 155 147 139 106 127 239 243 235 238 238 231 150 135 169 154 155 171 181 160 175 214 209 201 190 169 185 174 158 119 159 213 174 178 178 192 204 199 191 186 182 173
4 360 355 337 154 152 148 148 90 20 250 229 218 234 214 211 187 184 177 167 187 183 194 200 213 176 182 189 176 193 196 178 170 150 51 155 210 205 211 209 205 203 197 191 182
8 5 22 86 148 156 171 177 217 346 272 165 187 242 196 195 218 193 183 169 180 200 197 224 188 184 192 200 200 206 218 173 145 167 210 211 228 196 191 206 211 203 197 190 180
14 17 52 60 144 158 176 177 241 309 257 114 159 170 173 190 137 187 180 201 182 173 184 201 186 190 200 204 198 218 155 164 175 203 198 196 247 148 172 214 212 204 195 187 181
20 34 48 94 129 156 155 159 193 229 246 105 134 162 165 205 147 140 183 190 152 170 237 220 247 192 203 213 194 135 110 100 141 204 236 216 213 232 188 205 201 195 192 183 176
25 38 56 67 129 142 142 154 205 228 15 84 143 191 199 189 156 178 187 197 188 187 205 201 193 187 159 138 153 166 164 160 199 208 235 215 215 240 175 184 205 183 182 179 173
14 33 33 37 70 143 147 201 240 41 308 355 275 109 222 177 206 195 200 207 220 236 192 196 209 187 187 192 182 196 192 194 214 211 213 165 225 219 102 187 193 176 175 172 170
355 3 10 326 168 161 194 215 270 238 320 326 262 213 193 228 250 196 206 220 217 221 225 209 227 192 179 164 163 196 215 214 250 351 242 206 216 191 154 154 154 163 169 170 168
314 308 329 281 178 156 217 281 272 264 293 265 291 219 280 258 190 194 180 207 220 224 221 232 250 182 177 174 207 211 189 204 212 207 227 200 240 234 204 189 170 171 174 168 164
288 203 142 126 152 158 232 245 271 271 281 252 290 276 252 234 277 225 207 198 201 214 207 195 211 155 170 206 193 182 199 208 219 228 236 248 237 27 250 184 175 173 172 167 164
237 215 167 139 180 226 243 267 266 230 242 255 252 231 243 197 263 236 236 262 353 317 202 191 187 210 203 58 351 256 213 208 215 214 231 254 255 21 258 172 168 168 168 167 165
350 180 188 162 229 230 299 283 276 266 252 280 249 236 210 225 266 217 208 152 124 21 202 186 207 169 173 267 238 217 196 251 229 257 221 217 212 47 123 149 165 165 167 164 161
8 228 81 165 121 263 286 285 255 234 256 259 277 262 267 248 229 272 258 192 203 219 197 339 263 231 233 222 144 198 204 203 206 217 221 231 219 175 163 162 164 166 164 160 163
35 48 23 314 117 351 302 287 276 293 255 262 205 243 257 263 268 243 262 291 210 269 206 201 241 285 300 3 152 271 199 196 204 214 213 225 208 188 179 167 165 160 158 158 159
48 5 345 305 301 289 219 217 278 303 278 246 251 313 286 249 257 296 301 257 260 137 203 285 219 168 254 215 273 229 233 221 211 222 243 142 210 122 148 149 154 158 157 156 161
29 6 20 92 233 243 231 292 182 347 261 263 310 307 275 280 285 280 272 269 281 238 196 200 212 183 249 144 144 273 222 201 197 190 230 208 135 147 149 160 164 159 159 156 159
Height
1493 1491 1489 1487 1485 1484 1483 1481 1481 1479 1480 1481 1481 1480 1483 1485 1486 1486 1483 1486 1492 1494 1498 1500 1505 1506 1509 1512 1512 1517 1516 1510 1515 1515 1523 1530 1532 1541 1544 1546 1546 1548 1554 1557 1558
1491 1489 1487 1485 1483 1481 1480 1479 1477 1476 1478 1478 1480 1478 1483 1483 1484 1482 1481 1486 1489 1492 1495 1499 1500 1505 1510 1510 1512 1515 1514 1510 1519 1516 1519 1528 1534 1539 1546 1548 1552 1553 1556 1558 1558
1489 1487 1485 1483 1480 1479 1477 1476 1476 1475 1472 1476 1478 1479 1480 1481 1485 1477 1478 1483 1487 1491 1495 1499 1501 1505 1509 1508 1509 1514 1513 1518 1523 1521 1524 1530 1537 1542 1544 1553 1556 1556 1558 1558 1558
1487 1485 1482 1480 1478 1476 1474 1473 1473 1472 1472 1472 1477 1477 1479 1481 1481 1476 1476 1478 1483 1489 1492 1497 1500 1502 1503 1504 1509 1514 1521 1522 1526 1528 1527 1532 1539 1546 1549 1556 1557 1557 1558 1558 1559
1485 1482 1480 1477 1474 1473 1471 1470 1470 1471 1471 1473 1475 1476 1478 1480 1477 1474 1475 1476 1480 1486 1489 1493 1498 1499 1500 1501 1510 1513 1525 1524 1527 1532 1532 1534 1543 1548 1557 1559 1558 1556 1559 1559 1558
1483 1480 1477 1475 1472 1469 1468 1468 1469 1469 1470 1471 1473 1475 1476 1478 1473 1474 1473 1474 1477 1483 1488 1492 1496 1499 1501 1505 1506 1517 1523 1527 1533 1533 1537 1538 1548 1550 1561 1560 1560 1559 1559 1560 1559
1481 1477 1474 1471 1469 1467 1466 1466 1467 1467 1468 1470 1472 1474 1474 1474 1472 1472 1472 1473 1477 1483 1487 1493 1496 1497 1500 1507 1516 1518 1521 1527 1533 1533 1539 1541 1548 1558 1561 1561 1561 1562 1561 1560 1561
1477 1474 1471 1468 1467 1465 1465 1465 1466 1466 1468 1470 1472 1472 1472 1470 1470 1471 1471 1473 1478 1482 1489 1492 1495 1497 1501 1507 1515 1514 1515 1515 1534 1534 1540 1538 1542 1561 1562 1561 1563 1563 1562 1562 1563
1474 1471 1469 1466 1464 1464 1464 1465 1466 1466 1469 1471 1473 1473 1472 1468 1469 1471 1471 1473 1479 1484 1489 1492 1495 1498 1503 1501 1507 1511 1502 1510 1530 1534 1535 1539 1543 1556 1559 1561 1561 1563 1563 1563 1562
1471 1468 1466 1463 1462 1463 1464 1467 1467 1468 1471 1473 1473 1477 1469 1468 1468 1470 1472 1475 1479 1484 1490 1492 1493 1494 1495 1494 1492 1495 1499 1505 1512 1532 1531 1532 1544 1555 1559 1559 1561 1563 1563 1563 1562
1468 1464 1462 1461 1462 1463 1466 1469 1472 1473 1469 1467 1469 1468 1466 1467 1468 1471 1472 1476 1480 1484 1483 1488 1487 1484 1482 1485 1485 1488 1493 1504 1526 1533 1531 1532 1543 1552 1557 1558 1559 1560 1561 1563 1564
1466 1463 1462 1460 1460 1462 1465 1468 1469 1471 1467 1464 1466 1467 1466 1467 1469 1470 1473 1475 1478 1478 1484 1488 1481 1479 1484 1491 1492 1493 1498 1511 1530 1533 1528 1535 1537 1548 1553 1553 1555 1557 1559 1562 1563
1465 1462 1459 1457 1459 1463 1465 1467 1467 1466 1467 1462 1461 1465 1465 1467 1466 1468 1471 1472 1473 1475 1477 1474 1474 1483 1486 1489 1492 1492 1492 1506 1502 1531 1535 1532 1531 1545 1548 1551 1553 1555 1557 1560 1560
1467 1463 1459 1458 1463 1465 1467 1467 1467 1468 1462 1459 1460 1460 1462 1465 1465 1465 1469 1472 1474 1473 1477 1476 1477 1479 1482 1483 1485 1490 1491 1499 1513 1511 1503 1526 1490 1523 1533 1543 1548 1550 1552 1555 1555
1468 1464 1461 1458 1459 1463 1466 1467 1468 1468 1455 1459 1459 1459 1460 1464 1463 1463 1466 1469 1469 1470 1474 1470 1473 1476 1478 1475 1480 1484 1493 1499 1506 1499 1505 1524 1509 1488 1526 1534 1533 1537 1544 1549 1552
1469 1466 1464 1462 1463 1463 1463 1466 1467 1464 1458 1456 1459 1457 1459 1461 1461 1463 1465 1467 1468 1470 1470 1466 1472 1472 1470 1475 1480 1494 1498 1504 1506 1503 1501 1484 1497 1469 1510 1503 1509 1528 1536 1542 1547
1470 1468 1466 1465 1463 1461 1463 1465 1462 1455 1455 1458 1457 1457 1456 1458 1461 1460 1463 1464 1463 1468 1468 1468 1470 1470 1472 1478 1484 1482 1486 1502 1505 1504 1486 1480 1496 1470 1485 1498 1500 1511 1527 1537 1543
1471 1469 1467 1466 1465 1465 1467 1469 1464 1459 1456 1458 1455 1456 1456 1454 1456 1460 1462 1463 1459 1460 1457 1462 1467 1463 1462 1460 1469 1470 1468 1471 1479 1478 1471 1496 1479 1461 1502 1506 1507 1513 1524 1532 1538
1470 1469 1468 1467 1467 1468 1469 1463 1454 1459 1462 1459 1456 1454 1457 1456 1457 1459 1460 1461 1458 1457 1457 1455 1450 1453 1455 1458 1461 1469 1464 1460 1466 1473 1462 1461 1474 1499 1506 1508 1511 1515 1523 1530 1535
1470 1468 1468 1467 1468 1470 1471 1464 1463 1463 1462 1461 1455 1457 1454 1452 1454 1458 1458 1452 1452 1453 1456 1458 1454 1452 1453 1457 1457 1454 1458 1472 1472 1472 1464 1451 1457 1443 1495 1499 1509 1516 1522 1529 1534
1467 1467 1467 1466 1468 1471 1466 1464 1463 1462 1463 1460 1457 1457 1458 1459 1461 1453 1447 1446 1447 1447 1451 1457 1456 1456 1454 1448 1446 1454 1450 1451 1453 1452 1445 1444 1435 1473 1472 1485 1501 1513 1521 1527 1532
1466 1466 1465 1466 1469 1468 1461 1460 1461 1461 1462 1461 1460 1458 1459 1459 1456 1454 1450 1450 1453 1450 1446 1451 1451 1445 1448 1455 1456 1447 1437 1442 1444 1445 1440 1439 1434 1484 1485 1485 1498 1510 1520 1527 1532
1466 1465 1466 1466 1462 1463 1464 1462 1463 1461 1460 1459 1456 1455 1453 1456 1455 1450 1450 1454 1453 1452 1448 1450 1444 1444 1452 1459 1458 1452 1448 1447 1438 1444 1436 1441 1435 1485 1485 1492 1500 1508 1517 1524 1530
1468 1465 1466 1465 1466 1464 1464 1463 1461 1460 1461 1460 1458 1457 1457 1453 1453 1449 1449 1452 1453 1452 1449 1452 1442 1431 1415 1415 1425 1441 1440 1446 1443 1446 1433 1424 1441 1486 1488 1492 1499 1507 1514 1521 1526
1467 1472 1472 1465 1466 1468 1470 1465 1462 1462 1461 1460 1455 1456 1457 1456 1452 1449 1448 1451 1451 1450 1449 1449 1442 1443 1438 1440 1436 1437 1428 1435 1441 1437 1433 1428 1437 1461 1476 1484 1494 1503 1511 1518 1525
1472 1473 1473 1472 1471 1470 1468 1465 1464 1462 1462 1459 1458 1458 1458 1456 1451 1451 1450 1450 1445 1450 1450 1449 1437 1444 1440 1449 1446 1439 1439 1430 1427 1430 1436 1452 1451 1470 1478 1488 1496 1502 1508 1515 1522
1474 1474 1473 1472 1471 1469 1466 1467 1465 1467 1461 1461 1460 1460 1457 1454 1454 1451 1451 1450 1448 1446 1447 1447 1444 1442 1427 1447 1448 1441 1431 1430 1428 1439 1435 1441 1444 1469 1480 1487 1495 1500 1508 1514 1521